AKT2801 CYHM-CYSB

Flight info

Callsign AKT2801
Flight time N/A
Altitude 36000
Route YVV/N0459F350 DCT BUDAG
Aircraft B737/M-SDE2E3FGHIRWXY/LB1

Departure

Time 2026-04-21 03:22
Airport John C. Munro Hamilton International Airport (CYHM)

Arrival

Time N/A
Airport Sudbury Airport (CYSB)
Time Latitude Longitude Altitude Speed Heading
2026-04-21 02:54 43.16402 -79.92513 776 ft 0 kts 197°
2026-04-21 03:14 43.16409 -79.92510 776 ft 4 kts 197°
2026-04-21 03:14 43.16435 -79.92500 776 ft 4 kts 199°
2026-04-21 03:14 43.16459 -79.92485 776 ft 4 kts 215°
2026-04-21 03:14 43.16477 -79.92460 776 ft 4 kts 251°
2026-04-21 03:15 43.16479 -79.92438 776 ft 1 kts 287°
2026-04-21 03:15 43.16478 -79.92435 776 ft 0 kts 287°
2026-04-21 03:16 43.16478 -79.92436 776 ft 1 kts 287°
2026-04-21 03:17 43.16482 -79.92454 776 ft 4 kts 287°
2026-04-21 03:17 43.16496 -79.92497 776 ft 6 kts 309°
2026-04-21 03:17 43.16545 -79.92506 776 ft 9 kts
2026-04-21 03:17 43.16612 -79.92508 776 ft 10 kts 338°
2026-04-21 03:18 43.16676 -79.92558 776 ft 10 kts 330°
2026-04-21 03:18 43.16739 -79.92607 776 ft 10 kts 331°
2026-04-21 03:18 43.16799 -79.92654 776 ft 10 kts 330°
2026-04-21 03:18 43.16858 -79.92701 776 ft 10 kts 330°
2026-04-21 03:19 43.16916 -79.92746 776 ft 9 kts 330°
2026-04-21 03:19 43.16973 -79.92790 776 ft 9 kts 330°
2026-04-21 03:19 43.17028 -79.92833 775 ft 9 kts 330°
2026-04-21 03:19 43.17097 -79.92806 772 ft 13 kts 48°
2026-04-21 03:20 43.17163 -79.92705 773 ft 15 kts 48°
2026-04-21 03:20 43.17232 -79.92598 776 ft 15 kts 49°
2026-04-21 03:20 43.17310 -79.92476 776 ft 19 kts 49°
2026-04-21 03:20 43.17399 -79.92334 777 ft 21 kts 49°
2026-04-21 03:21 43.17506 -79.92168 772 ft 25 kts 47°
2026-04-21 03:21 43.17625 -79.91986 767 ft 26 kts 49°
2026-04-21 03:21 43.17687 -79.91843 768 ft 14 kts 89°
2026-04-21 03:21 43.17726 -79.91824 767 ft 9 kts 257°
2026-04-21 03:22 43.17683 -79.91896 767 ft 13 kts 229°
2026-04-21 03:22 43.17455 -79.92253 773 ft 91 kts 228°
2026-04-21 03:22 43.16864 -79.93176 806 ft 159 kts 227°
2026-04-21 03:22 43.16131 -79.94340 1795 ft 153 kts 230°
2026-04-21 03:23 43.15413 -79.95430 2759 ft 162 kts 229°
2026-04-21 03:23 43.14582 -79.96685 3288 ft 195 kts 229°
2026-04-21 03:23 43.13614 -79.98171 3697 ft 221 kts 233°
2026-04-21 03:23 43.13038 -80.00205 4246 ft 241 kts 271°
2026-04-21 03:24 43.13594 -80.02345 5257 ft 248 kts 307°
2026-04-21 03:24 43.14848 -80.03957 6521 ft 249 kts 326°
2026-04-21 03:24 43.16394 -80.05084 7640 ft 253 kts 332°
2026-04-21 03:24 43.17984 -80.06109 8710 ft 256 kts 333°
2026-04-21 03:25 43.19621 -80.07140 9815 ft 259 kts 333°
2026-04-21 03:25 43.21281 -80.08187 10690 ft 271 kts 333°
2026-04-21 03:25 43.23067 -80.09323 10945 ft 300 kts 333°
2026-04-21 03:25 43.25063 -80.10602 11181 ft 328 kts 333°
2026-04-21 03:26 43.27178 -80.11963 11715 ft 343 kts 333°
2026-04-21 03:26 43.28883 -80.13062 12390 ft 347 kts 333°
2026-04-21 03:26 43.30833 -80.14323 13252 ft 349 kts 333°
2026-04-21 03:26 43.32882 -80.15652 14123 ft 352 kts 333°
2026-04-21 03:27 43.35112 -80.17101 14916 ft 356 kts 333°
2026-04-21 03:27 43.37336 -80.18550 15738 ft 358 kts 333°
2026-04-21 03:27 43.39609 -80.20034 16546 ft 361 kts 333°
2026-04-21 03:27 43.41901 -80.21532 17344 ft 365 kts 333°
2026-04-21 03:28 43.44202 -80.23039 18135 ft 368 kts 333°
2026-04-21 03:28 43.46525 -80.24561 18863 ft 371 kts 333°
2026-04-21 03:28 43.48835 -80.26075 19547 ft 373 kts 333°
2026-04-21 03:28 43.51176 -80.27612 20263 ft 374 kts 333°
2026-04-21 03:29 43.53546 -80.29168 20966 ft 376 kts 333°
2026-04-21 03:29 43.55919 -80.30728 21640 ft 378 kts 333°
2026-04-21 03:29 43.58297 -80.32294 22301 ft 380 kts 333°
2026-04-21 03:29 43.60667 -80.33855 22946 ft 382 kts 333°
2026-04-21 03:30 43.63104 -80.35461 23600 ft 384 kts 333°
2026-04-21 03:30 43.65493 -80.37037 24171 ft 386 kts 333°
2026-04-21 03:30 43.67926 -80.38644 24671 ft 387 kts 334°
2026-04-21 03:30 43.70361 -80.40253 25165 ft 388 kts 334°
2026-04-21 03:31 43.72816 -80.41878 25644 ft 390 kts 334°
2026-04-21 03:31 43.75251 -80.43490 26098 ft 392 kts 334°
2026-04-21 03:31 43.77716 -80.45124 26543 ft 393 kts 334°
2026-04-21 03:31 43.80190 -80.46765 26981 ft 394 kts 334°
2026-04-21 03:32 43.82689 -80.48425 27405 ft 396 kts 334°
2026-04-21 03:32 43.85152 -80.50062 27831 ft 397 kts 334°
2026-04-21 03:32 43.87656 -80.51728 28236 ft 398 kts 334°
2026-04-21 03:32 43.90161 -80.53396 28679 ft 398 kts 334°
2026-04-21 03:33 43.92654 -80.55056 29197 ft 395 kts 334°
2026-04-21 03:33 43.95132 -80.56709 29817 ft 391 kts 334°
2026-04-21 03:33 43.97545 -80.58321 30430 ft 388 kts 334°
2026-04-21 03:33 43.99972 -80.59944 30896 ft 386 kts 334°
2026-04-21 03:34 44.02405 -80.61573 31238 ft 388 kts 334°
2026-04-21 03:34 44.04853 -80.63212 31576 ft 388 kts 334°
2026-04-21 03:34 44.07288 -80.64844 31975 ft 387 kts 334°
2026-04-21 03:34 44.09685 -80.66452 32351 ft 387 kts 334°
2026-04-21 03:35 44.12114 -80.68083 32693 ft 387 kts 334°
2026-04-21 03:35 44.14542 -80.69716 33030 ft 387 kts 334°
2026-04-21 03:35 44.16977 -80.71354 33405 ft 387 kts 334°
2026-04-21 03:35 44.19405 -80.72988 33741 ft 387 kts 334°
2026-04-21 03:36 44.21013 -80.74072 33964 ft 387 kts 334°